Wind_Speed
30 29 26 25 25 24 23 22 21 22 22 20 18 16 14 13 10 8 7 6 6 7 7 6 7 8 8 8 8 6 5 5 6 5 4 4 5 6 6 7 7 8 9 9
31 29 27 29 28 27 25 24 23 24 25 23 21 19 17 15 12 10 9 7 7 7 7 7 8 9 9 9 8 7 7 6 6 6 5 4 4 5 6 7 8 9 10 10
30 29 29 30 29 29 27 25 24 26 27 25 23 22 20 17 15 13 10 8 8 8 9 10 10 10 10 9 8 8 8 7 7 7 6 6 6 6 7 7 8 9 9 10
33 31 31 31 30 29 27 26 27 28 29 28 26 24 21 18 16 14 12 11 10 10 10 10 11 11 11 10 9 9 9 8 7 7 8 8 8 8 8 9 9 9 9 10
33 32 32 31 30 29 28 29 29 30 31 30 29 26 22 20 17 15 14 13 13 12 11 11 12 12 12 11 10 10 10 9 9 9 9 9 9 9 9 10 10 10 10 10
34 34 33 31 31 31 31 31 31 32 32 32 29 28 24 21 18 17 16 15 15 14 13 13 13 14 14 13 13 12 12 11 11 10 10 10 10 10 10 10 11 11 11 11
34 33 32 32 33 33 32 32 32 32 33 32 29 29 26 21 19 18 18 17 16 15 15 15 14 14 14 14 14 13 12 12 11 11 12 11 11 11 11 11 12 12 11 11
34 33 32 32 32 32 32 32 32 32 32 31 29 29 26 22 20 19 18 18 17 16 16 16 15 15 15 15 14 14 13 13 12 12 13 12 12 12 11 11 12 13 13 13
32 31 31 31 31 32 33 32 31 32 32 31 30 28 25 22 20 19 18 17 16 15 15 16 16 15 15 15 14 14 13 12 13 13 13 13 12 12 12 13 12 13 13 13
32 32 32 32 32 34 33 32 32 33 32 31 29 27 24 22 21 19 17 17 15 15 15 15 15 15 15 15 15 15 13 12 12 13 13 14 14 13 13 12 13 13 12 13
33 32 32 33 34 33 33 33 33 33 32 30 29 25 22 22 20 18 16 15 14 15 16 16 16 15 15 15 15 14 13 13 13 14 14 14 14 14 14 13 14 13 13 14
31 32 32 33 33 33 33 33 32 32 31 29 27 23 21 20 21 19 17 15 14 15 17 16 15 16 15 14 14 13 13 13 13 14 15 14 14 14 14 14 14 14 14 14
30 31 32 33 34 34 34 33 32 31 30 29 27 22 21 20 20 19 18 16 16 15 15 15 15 15 15 14 13 13 13 12 13 13 13 14 14 14 14 14 14 14 14 14
30 30 30 31 31 31 32 32 31 31 30 29 26 22 21 21 20 19 17 16 14 13 13 14 14 13 13 13 12 11 11 11 12 12 12 13 13 13 13 13 13 13 14 15
30 29 29 28 30 31 31 30 30 30 29 27 25 23 21 21 20 19 18 16 14 13 13 13 12 11 11 10 10 10 10 11 12 11 11 12 12 12 13 13 13 14 14 15
29 29 29 28 29 30 31 30 30 29 28 26 24 23 22 22 20 19 18 17 15 14 14 13 12 11 10 10 10 10 11 12 12 12 12 12 13 13 13 14 14 14 14 15
28 28 29 29 29 30 31 30 29 29 27 25 23 21 21 22 21 19 18 17 15 14 14 13 13 13 11 9 10 11 12 12 13 12 12 12 12 12 12 13 14 15 15 15
28 28 28 28 30 32 30 29 29 28 26 24 22 21 21 21 21 20 19 18 17 16 15 14 13 13 12 11 10 11 12 12 13 12 12 12 12 12 13 13 14 14 15 16
29 29 29 30 32 31 29 28 28 27 26 24 22 21 21 21 21 20 19 18 18 17 17 16 15 14 13 12 12 12 12 12 12 11 12 12 12 12 13 14 15 16 16 17
31 30 31 32 33 33 29 28 28 27 26 24 23 22 22 22 20 19 20 19 18 17 17 16 15 14 14 14 14 14 13 12 13 13 13 14 13 13 14 15 15 16 17 18
32 31 31 32 33 31 29 28 28 27 24 23 24 23 23 23 21 21 21 20 19 19 17 16 16 15 15 15 15 15 14 14 14 14 15 14 14 14 14 14 14 15 16 17
32 32 32 32 33 32 28 28 28 26 24 24 24 23 23 23 23 23 23 23 22 20 19 17 16 16 15 15 16 15 15 15 15 15 15 15 15 15 15 15 16 16 16 16
32 32 32 31 31 30 29 29 28 27 25 24 24 23 23 23 23 23 23 22 21 21 19 18 17 17 17 17 16 16 16 17 17 16 16 16 16 16 16 17 17 17 17 17
30 31 31 31 29 29 28 28 28 27 25 24 24 23 24 23 22 22 23 23 22 21 21 20 19 19 18 18 18 18 18 18 18 18 17 17 17 18 18 18 18 18 18 18
30 29 29 29 28 28 27 26 27 28 26 25 23 23 23 23 22 20 20 20 20 20 21 20 20 20 20 20 20 20 20 19 19 19 19 18 19 19 19 19 19 19 19 19
30 30 29 28 27 26 26 26 27 27 25 24 23 22 21 21 21 20 19 20 20 19 19 20 20 19 19 19 19 19 19 20 20 20 20 21 20 20 20 20 19 19 20 20
Wind_Direction
233 233 232 233 234 234 234 233 232 236 243 247 250 256 262 267 271 276 280 291 304 302 308 321 325 322 316 318 323 309 314 311 304 302 292 291 269 252 242 242 246 245 246 246
233 232 231 231 232 233 232 232 230 233 241 246 249 253 258 264 268 269 272 278 286 292 301 307 310 316 312 308 309 309 311 298 292 291 294 296 279 260 260 258 252 249 249 248
233 231 231 231 231 231 232 232 230 232 239 245 248 250 254 258 258 259 264 266 269 279 286 292 297 305 310 304 301 301 299 291 285 284 286 288 277 266 263 261 255 252 253 251
230 229 229 230 230 230 230 231 231 232 236 241 246 247 249 253 255 257 262 266 272 276 280 284 291 295 301 301 293 286 286 287 285 283 285 284 273 270 267 257 255 254 257 253
230 230 229 229 229 230 229 230 230 232 236 240 245 247 247 252 253 256 261 268 272 273 275 280 284 285 289 295 289 281 275 277 281 279 276 276 271 271 268 259 254 255 255 250
227 228 228 227 227 228 228 229 230 232 237 239 244 249 249 251 255 258 263 267 269 271 273 277 278 278 284 287 285 279 276 271 273 273 272 270 272 276 272 261 256 255 251 250
226 227 227 225 225 226 228 229 230 232 236 241 244 250 254 254 255 258 263 265 265 266 270 274 278 279 279 280 280 276 275 266 267 269 271 272 272 273 272 263 256 255 252 249
226 226 226 225 226 228 229 231 233 236 239 243 245 249 254 256 257 257 259 261 262 264 265 269 273 278 279 276 278 275 275 268 267 267 268 273 276 272 267 264 258 257 256 254
225 225 225 224 224 227 228 230 233 236 240 243 245 249 251 253 256 257 257 259 260 261 265 266 267 274 277 277 281 278 273 271 268 267 267 271 275 273 265 266 264 262 259 260
222 222 222 222 222 224 226 229 231 235 240 243 246 248 249 249 252 254 255 256 255 258 263 266 269 274 274 275 276 273 266 265 270 267 268 271 274 273 268 266 265 262 260 263
221 220 220 221 222 225 226 228 231 236 240 243 247 247 248 247 249 250 251 253 254 258 264 268 269 271 273 272 274 276 265 261 268 272 271 272 273 272 269 269 265 263 261 262
219 219 219 221 222 224 226 229 232 236 241 244 247 244 243 243 244 245 248 252 256 260 262 265 269 270 271 270 269 268 263 263 267 270 271 269 269 268 268 268 267 265 263 262
219 218 217 219 222 224 227 229 232 236 239 241 242 240 237 240 241 245 249 254 257 257 260 267 271 271 266 264 266 265 261 262 268 271 273 269 269 270 268 266 267 266 264 265
220 220 220 222 224 226 227 229 231 234 237 239 240 240 236 236 238 245 250 252 253 255 262 271 277 277 266 259 259 261 259 264 268 273 274 273 272 273 269 265 266 266 265 266
220 220 219 219 221 224 227 228 229 233 237 240 239 239 237 236 236 238 245 249 253 258 265 272 277 272 261 253 254 257 263 266 269 274 275 274 274 274 271 268 266 266 265 265
221 221 218 216 217 222 224 226 228 232 236 238 239 239 236 234 234 237 242 247 251 257 267 273 270 266 264 254 252 256 259 264 269 272 277 276 274 275 272 267 267 268 270 268
224 222 219 216 216 220 223 225 227 232 236 238 240 238 234 233 233 236 242 247 250 256 267 268 261 262 262 254 252 255 259 265 269 272 276 279 277 277 275 272 272 271 271 270
225 224 222 218 218 222 224 225 228 231 235 238 238 237 234 233 233 235 240 246 249 256 259 263 267 266 260 259 258 260 264 264 269 275 278 280 279 279 277 276 277 274 275 275
225 224 222 220 221 224 223 224 226 230 234 237 238 238 234 233 235 237 240 243 247 254 257 262 264 261 257 259 262 265 269 269 276 280 280 284 286 284 281 280 280 279 278 276
224 224 223 222 223 225 224 226 228 231 234 236 239 240 236 235 237 239 241 244 251 256 262 263 261 260 259 261 264 270 274 274 276 276 278 280 285 288 286 282 281 280 279 276
225 225 223 224 226 226 225 227 229 233 236 237 240 240 238 236 240 242 244 246 251 254 258 260 256 258 259 260 265 269 271 272 273 274 275 277 281 289 291 289 286 284 281 280
226 226 225 226 227 227 228 229 230 233 235 238 240 240 239 239 240 243 246 248 252 253 252 256 255 257 258 262 266 268 272 276 278 279 277 279 282 285 288 290 293 293 290 289
225 225 226 228 229 230 230 230 229 231 233 237 239 241 240 239 240 244 245 248 251 247 251 255 255 256 258 263 266 268 272 275 276 280 278 279 282 284 286 288 291 292 290 287
226 227 228 229 229 231 230 230 230 230 233 237 239 238 237 238 240 242 243 247 251 247 249 253 255 256 260 263 265 267 270 273 275 276 278 279 281 283 284 286 288 289 287 287
227 228 229 229 229 228 227 228 229 231 233 234 234 234 233 236 239 245 246 247 250 250 250 253 255 260 262 265 268 268 270 273 274 274 276 278 280 282 283 284 285 285 286 287
225 226 227 227 227 227 225 227 230 230 231 232 232 231 233 235 240 246 247 245 246 248 249 252 255 258 261 265 267 267 268 271 272 272 274 277 279 280 282 285 285 284 287 288
Height
5860 5865 5869 5873 5875 5878 5881 5883 5886 5888 5888 5891 5892 5894 5896 5897 5898 5899 5900 5901 5901 5900 5900 5900 5899 5899 5898 5897 5896 5895 5896 5896 5896 5896 5895 5895 5895 5895 5895 5895 5896 5897 5898 5899
5856 5860 5865 5866 5870 5873 5877 5880 5883 5885 5885 5887 5889 5892 5893 5895 5896 5897 5898 5899 5899 5899 5899 5899 5898 5898 5897 5896 5896 5895 5895 5895 5895 5895 5895 5895 5894 5894 5894 5894 5895 5896 5897 5898
5850 5856 5858 5862 5865 5869 5873 5877 5879 5881 5882 5884 5886 5889 5891 5892 5894 5894 5895 5896 5897 5897 5897 5897 5897 5896 5896 5895 5894 5894 5894 5893 5893 5893 5894 5894 5894 5893 5893 5893 5894 5894 5895 5896
5843 5848 5853 5856 5861 5864 5869 5872 5874 5876 5878 5880 5883 5885 5888 5889 5891 5892 5893 5894 5894 5895 5895 5895 5894 5894 5894 5893 5892 5893 5893 5893 5892 5892 5892 5892 5892 5891 5891 5891 5892 5892 5892 5893
5838 5842 5847 5851 5856 5860 5864 5866 5869 5871 5873 5876 5878 5881 5885 5886 5887 5889 5890 5891 5892 5892 5892 5892 5892 5891 5891 5891 5890 5891 5891 5891 5891 5890 5890 5890 5890 5889 5889 5889 5889 5890 5890 5891
5831 5836 5841 5846 5850 5854 5857 5860 5863 5866 5868 5871 5875 5877 5880 5882 5884 5886 5887 5888 5888 5889 5889 5889 5888 5888 5888 5888 5888 5888 5888 5888 5888 5888 5887 5887 5887 5887 5887 5887 5887 5887 5888 5888
5825 5830 5835 5840 5844 5848 5852 5856 5859 5861 5863 5867 5871 5872 5876 5879 5881 5882 5883 5884 5885 5885 5885 5885 5884 5885 5885 5884 5884 5885 5884 5884 5884 5885 5885 5885 5884 5884 5884 5884 5885 5885 5885 5886
5820 5825 5830 5835 5839 5843 5847 5851 5855 5858 5860 5863 5866 5868 5872 5875 5877 5878 5879 5880 5881 5882 5882 5882 5882 5881 5881 5880 5881 5881 5881 5880 5881 5881 5881 5881 5881 5881 5882 5881 5882 5882 5882 5883
5815 5821 5825 5830 5834 5838 5841 5845 5850 5853 5855 5858 5861 5864 5868 5870 5872 5874 5875 5876 5877 5878 5878 5878 5878 5878 5878 5877 5877 5877 5877 5877 5877 5878 5878 5878 5878 5878 5878 5879 5879 5879 5879 5880
5809 5815 5819 5824 5828 5831 5836 5840 5844 5847 5850 5853 5856 5860 5864 5866 5868 5870 5871 5872 5873 5874 5874 5875 5874 5874 5874 5874 5874 5873 5874 5874 5874 5874 5874 5874 5874 5875 5875 5875 5875 5876 5876 5877
5803 5809 5814 5818 5822 5827 5831 5835 5838 5842 5846 5849 5852 5858 5860 5862 5864 5866 5867 5868 5869 5870 5871 5870 5871 5870 5870 5870 5870 5869 5870 5870 5871 5871 5871 5871 5872 5872 5872 5872 5872 5872 5873 5873
5798 5803 5808 5813 5818 5822 5826 5830 5834 5838 5842 5845 5848 5855 5855 5857 5859 5861 5863 5865 5866 5866 5867 5867 5867 5867 5866 5866 5866 5866 5866 5867 5868 5868 5868 5868 5869 5869 5869 5869 5869 5869 5869 5869
5793 5798 5803 5808 5814 5817 5821 5825 5829 5834 5837 5840 5843 5851 5852 5853 5855 5857 5859 5861 5862 5863 5863 5863 5863 5862 5862 5862 5863 5863 5863 5864 5865 5865 5864 5865 5865 5865 5865 5865 5865 5865 5866 5866
5789 5794 5800 5805 5809 5813 5817 5821 5825 5829 5832 5835 5840 5844 5848 5850 5852 5854 5856 5857 5859 5860 5860 5860 5859 5858 5858 5858 5859 5860 5861 5862 5862 5862 5862 5862 5862 5862 5861 5861 5861 5862 5862 5862
5783 5789 5794 5800 5804 5808 5812 5817 5820 5824 5828 5832 5836 5839 5843 5845 5848 5850 5852 5854 5855 5856 5857 5857 5856 5856 5855 5855 5857 5858 5858 5859 5860 5859 5859 5859 5859 5858 5858 5858 5858 5858 5858 5858
5778 5784 5789 5794 5799 5803 5807 5812 5816 5820 5823 5827 5831 5835 5838 5841 5844 5846 5848 5850 5852 5853 5853 5854 5854 5854 5853 5853 5854 5855 5856 5856 5856 5856 5856 5855 5855 5855 5854 5854 5854 5854 5855 5854
5775 5780 5785 5790 5794 5798 5802 5807 5811 5815 5819 5823 5827 5832 5834 5837 5840 5842 5845 5846 5848 5849 5850 5851 5851 5852 5852 5851 5851 5852 5853 5853 5853 5853 5853 5852 5852 5851 5851 5851 5851 5851 5851 5850
5771 5775 5780 5785 5790 5793 5800 5803 5807 5811 5815 5819 5823 5826 5829 5832 5835 5838 5841 5843 5844 5845 5846 5847 5848 5848 5849 5849 5849 5850 5849 5849 5849 5849 5849 5849 5848 5848 5848 5848 5847 5847 5847 5846
5766 5771 5775 5780 5783 5788 5794 5798 5802 5806 5810 5815 5818 5821 5824 5827 5831 5834 5836 5838 5840 5841 5842 5843 5844 5845 5846 5846 5846 5846 5846 5846 5846 5846 5846 5846 5845 5845 5845 5844 5844 5843 5843 5842
5760 5765 5771 5775 5778 5783 5790 5794 5798 5803 5806 5811 5814 5817 5820 5823 5827 5830 5832 5834 5835 5836 5838 5839 5840 5841 5842 5843 5843 5843 5842 5842 5842 5842 5842 5842 5842 5842 5841 5840 5840 5839 5839 5838
5755 5759 5764 5769 5773 5779 5785 5790 5794 5799 5804 5806 5809 5812 5815 5818 5822 5825 5826 5829 5830 5832 5833 5835 5836 5837 5838 5839 5839 5839 5839 5838 5838 5839 5839 5839 5839 5838 5837 5836 5836 5835 5834 5834
5750 5754 5759 5764 5769 5776 5780 5785 5790 5794 5798 5801 5804 5807 5810 5813 5816 5818 5821 5823 5825 5827 5829 5830 5832 5833 5834 5834 5834 5834 5835 5835 5835 5835 5835 5835 5835 5834 5834 5833 5832 5831 5830 5829
5745 5750 5755 5760 5767 5771 5775 5779 5784 5788 5792 5795 5798 5801 5805 5807 5810 5812 5815 5818 5820 5822 5824 5826 5827 5829 5830 5830 5830 5831 5831 5831 5831 5831 5830 5831 5831 5830 5829 5829 5828 5827 5826 5825
5740 5745 5750 5755 5760 5765 5769 5774 5778 5782 5786 5789 5792 5795 5799 5801 5804 5807 5810 5812 5814 5816 5819 5821 5822 5824 5824 5825 5825 5826 5826 5826 5826 5826 5826 5826 5826 5825 5825 5824 5823 5822 5821 5820
5735 5740 5744 5749 5754 5759 5764 5768 5772 5776 5780 5783 5786 5790 5793 5797 5800 5802 5804 5806 5808 5811 5813 5815 5817 5818 5818 5819 5820 5820 5821 5821 5821 5821 5821 5821 5821 5820 5819 5819 5818 5817 5816 5815
5730 5735 5740 5744 5749 5754 5759 5763 5766 5770 5774 5778 5781 5785 5788 5791 5795 5797 5799 5801 5803 5806 5808 5810 5811 5812 5812 5813 5814 5814 5815 5815 5816 5816 5816 5816 5815 5815 5814 5813 5812 5811 5810 5809